Theta_e
313 313 313 314 314 314 314 315 315 316 316 317 317 318 318 318 317 312 306 313 313 320 323 312 312 313 309 308 315 315 302 299 302 305 307 309 307 309 312 310 310 314 316 327 331
313 313 312 313 313 313 314 314 314 314 315 316 317 318 318 318 312 307 317 317 320 321 312 306 305 309 303 306 308 305 301 303 309 310 309 309 308 308 306 307 308 314 327 330 331
312 311 311 312 312 313 313 313 313 313 314 315 316 318 317 316 305 305 319 318 319 318 312 310 309 306 301 306 304 305 299 306 309 312 313 309 308 309 306 304 307 310 322 325 327
310 310 310 311 311 311 311 311 312 312 313 314 315 317 315 311 292 309 315 315 318 316 310 308 306 301 299 300 304 301 306 305 308 312 311 309 310 307 307 307 311 312 324 323 325
310 310 310 310 311 311 312 312 312 312 312 313 315 316 310 300 301 309 315 313 315 313 307 306 301 300 297 300 303 300 303 304 306 309 309 310 307 306 306 312 314 319 323 322 323
311 311 311 311 311 311 312 312 312 312 313 314 314 315 307 295 307 308 311 310 311 310 307 306 301 302 299 299 300 304 303 303 304 307 308 307 307 308 308 313 313 318 319 321 323
311 311 311 311 311 311 311 312 313 313 314 314 316 312 305 301 310 312 312 309 311 310 304 307 306 304 304 301 305 304 300 302 301 304 305 308 303 303 309 312 313 314 317 321 324
310 311 310 310 310 311 311 312 313 313 314 316 315 311 300 310 313 311 309 307 311 311 308 309 309 304 302 304 302 299 299 294 300 302 303 302 296 306 310 309 310 313 315 319 320
310 310 310 310 310 310 311 312 314 314 314 315 311 306 298 312 306 310 310 304 309 311 312 312 309 302 300 295 294 297 290 292 296 303 301 299 295 305 308 309 308 311 315 317 318
310 310 310 310 310 311 312 314 314 311 311 311 310 299 303 299 306 308 309 307 306 308 306 304 299 295 293 292 286 287 291 293 293 298 299 296 295 298 302 304 306 309 313 316 316
309 309 310 310 310 310 309 306 299 301 301 296 297 297 299 304 309 304 308 307 306 304 295 298 292 288 291 294 294 293 292 291 295 297 297 295 295 296 299 300 301 306 311 314 316
309 309 309 309 309 309 308 298 298 299 291 300 301 301 304 306 299 303 308 300 297 292 296 295 289 293 296 295 293 292 290 290 293 296 297 295 294 297 298 298 299 303 306 313 314
309 309 309 309 309 306 301 300 306 305 292 295 300 300 301 304 298 299 305 301 295 292 292 288 292 297 293 290 290 290 289 289 290 293 294 291 291 294 298 299 301 300 301 303 307
309 309 309 308 303 302 299 303 307 307 287 289 294 299 302 303 296 305 306 301 295 291 292 291 294 294 292 289 291 288 293 293 292 290 283 289 282 290 294 295 297 299 300 300 301
309 309 308 306 301 298 300 304 305 302 276 290 293 304 301 297 298 298 306 301 292 291 291 288 290 290 289 291 293 290 295 292 292 289 286 285 282 286 289 289 290 291 295 296 296
308 308 307 304 303 303 305 304 301 285 272 286 293 291 293 295 297 299 299 302 300 293 291 291 295 294 292 294 295 296 293 292 291 288 280 286 284 284 287 288 288 290 292 296 296
307 306 305 304 298 305 304 299 283 276 286 282 286 290 290 289 292 294 292 292 290 283 284 288 290 293 295 291 293 293 288 281 279 279 280 285 283 286 290 290 290 291 292 294 296
307 306 304 303 305 303 300 288 274 276 280 289 288 289 286 289 289 290 289 288 294 291 287 282 279 289 294 291 289 289 288 281 277 278 279 283 279 286 292 292 293 293 293 294 296
305 304 302 303 304 301 293 280 278 280 286 285 288 284 282 289 289 289 288 288 291 292 286 284 284 292 293 294 292 288 285 291 283 281 278 281 285 290 290 291 292 293 294 294 297
301 299 298 303 303 298 287 282 279 287 287 287 281 286 280 282 286 287 286 289 288 292 293 290 283 290 292 293 292 290 292 282 282 273 273 278 280 283 286 288 292 292 292 294 295
299 292 299 304 300 290 282 280 282 288 289 286 282 283 284 284 283 285 285 288 290 290 293 291 287 286 290 287 285 287 286 287 286 283 278 276 277 285 287 290 290 292 293 295 295
295 284 299 302 286 284 281 279 284 286 289 288 288 285 284 285 284 284 284 287 292 291 287 289 286 283 285 290 292 290 287 288 280 279 281 280 279 290 290 291 292 292 294 295 295
288 289 301 299 280 281 280 279 283 284 286 286 285 288 289 285 280 286 287 292 292 291 288 290 284 279 278 285 289 287 289 290 288 284 280 278 280 291 292 291 293 292 293 294 294
289 283 287 291 287 284 279 278 278 286 285 286 287 289 286 283 285 283 284 288 291 292 293 293 285 281 277 280 286 282 286 288 287 280 281 281 283 289 291 292 293 292 293 293 294
288 284 287 280 281 284 284 281 279 278 283 285 283 284 284 279 281 281 285 286 289 291 290 289 277 280 283 285 286 283 284 285 284 286 281 283 284 289 291 292 291 292 292 293 294
285 284 286 286 285 284 284 279 280 281 281 279 279 284 284 280 282 279 284 283 283 287 286 288 275 279 274 282 282 279 282 284 285 286 285 286 284 291 290 290 290 291 292 292 294
296 294 290 286 285 282 282 283 282 284 284 285 284 283 282 285 287 288 288 287 286 284 284 283 275 271 267 278 276 269 278 281 282 284 283 280 284 288 288 289 289 290 292 293 294
Wind_Speed
12 12 13 14 15 15 15 15 16 17 18 19 20 20 20 15 16 14 14 8 2 12 13 13 15 19 9 6 6 2 5 13 17 16 8 12 7 1 5 8 2 4 7 12 16
10 12 13 14 15 16 17 17 17 17 18 19 21 23 18 17 15 15 13 4 5 7 6 10 15 19 5 10 5 6 6 11 14 14 8 10 8 9 3 6 5 10 13 15 12
10 11 12 13 14 16 17 17 17 17 18 19 20 19 18 14 3 3 8 2 3 2 4 7 7 15 6 7 5 2 5 9 18 4 10 7 7 9 7 8 8 13 13 13 13
10 11 12 13 14 16 17 18 18 18 18 18 18 14 14 9 4 5 5 2 5 2 2 5 7 5 3 8 6 5 8 15 7 5 4 6 4 7 8 2 5 12 20 13 14
10 11 12 13 14 17 18 18 18 19 18 18 16 9 5 3 6 3 2 3 2 3 2 3 5 3 4 6 7 4 6 17 3 2 2 7 5 5 6 6 7 16 18 16 14
10 12 13 14 15 17 20 20 19 19 18 17 15 7 4 5 5 10 9 1 2 3 3 7 3 5 3 6 2 10 5 14 13 6 4 4 4 5 6 9 8 12 13 14 14
11 13 14 15 16 17 20 21 20 20 18 13 11 5 6 9 6 10 15 7 0 1 1 6 7 1 5 9 17 1 8 7 12 6 4 6 4 6 9 9 9 7 10 12 14
9 12 14 16 17 19 20 21 21 16 10 11 4 4 4 4 6 13 7 2 2 6 2 3 11 8 3 11 10 3 2 7 13 9 3 3 6 11 7 7 8 10 9 10 10
10 12 14 16 18 20 21 22 18 10 8 6 3 3 3 1 7 12 12 9 9 5 5 4 4 4 7 4 5 5 5 6 4 4 4 7 3 7 6 7 7 8 9 8 9
9 12 14 15 18 20 21 22 7 9 7 6 3 4 3 4 4 11 9 8 8 7 3 1 5 5 4 3 2 5 10 4 3 2 4 6 5 5 4 2 6 7 8 9 8
9 12 14 16 17 18 14 4 5 3 6 4 4 2 9 10 4 6 4 8 7 4 2 3 3 6 9 2 2 8 9 6 1 5 5 7 6 6 8 5 4 5 4 8 7
9 11 13 16 17 14 7 5 4 2 5 6 4 0 2 5 3 9 11 5 4 4 3 2 8 8 6 9 3 8 9 2 2 2 3 6 5 5 3 5 6 5 4 6 4
9 11 13 14 14 6 8 7 2 1 3 1 1 4 4 7 4 7 11 11 5 3 2 6 7 12 11 4 2 5 5 7 4 2 1 4 5 6 6 3 6 2 4 5 5
9 9 11 17 5 3 2 6 4 2 3 6 4 4 4 4 1 2 4 5 3 1 4 2 8 9 8 8 2 3 5 11 13 7 2 2 2 4 2 5 1 3 4 4 3
8 7 8 7 5 2 5 6 4 3 1 6 4 3 5 3 6 2 3 5 7 1 4 4 6 9 7 5 9 3 6 7 11 7 5 1 3 3 4 6 8 8 7 7 7
5 5 7 3 2 3 6 6 3 1 1 3 5 7 5 6 2 1 1 5 3 5 2 5 2 2 1 10 11 8 5 5 4 5 3 4 0 4 3 1 2 4 5 5 5
3 0 4 2 2 5 6 3 0 1 3 4 3 5 4 5 4 8 5 3 3 1 3 4 5 3 1 7 6 4 5 2 1 2 2 4 4 5 6 5 3 5 5 5 3
2 2 1 3 4 4 3 2 0 1 2 2 1 4 4 6 3 6 0 3 2 5 4 2 2 3 3 3 2 6 4 3 2 2 3 3 4 1 6 7 6 6 6 4 4
3 2 2 2 4 2 2 1 1 2 2 2 3 3 4 2 1 4 5 7 6 10 4 5 5 5 4 4 4 2 3 1 5 3 1 4 4 6 8 7 6 7 7 7 5
2 2 2 3 3 1 2 0 2 2 1 2 2 4 1 2 1 3 4 5 7 6 10 4 0 4 4 3 2 3 7 3 3 3 2 4 3 4 8 8 10 11 7 6 3
2 2 2 3 1 4 2 2 1 3 2 1 2 4 4 3 4 5 4 1 4 5 6 8 3 2 1 3 2 3 1 4 4 1 0 2 1 3 9 7 7 7 7 6 4
2 1 1 3 2 1 2 2 2 4 2 0 1 1 3 4 5 4 2 3 4 3 3 3 3 2 2 3 4 2 4 5 3 3 2 2 5 5 8 6 4 6 6 5 3
4 2 1 2 3 3 3 0 1 2 4 5 3 2 1 2 3 2 2 1 6 1 1 1 1 1 3 4 1 1 1 8 4 2 3 3 2 5 5 4 5 7 7 7 5
4 3 2 2 2 3 4 3 3 1 3 1 1 2 2 1 1 2 3 2 1 4 3 1 3 3 2 3 2 3 5 3 4 1 2 4 7 11 8 12 9 8 8 7 7
1 3 2 5 4 3 5 7 4 4 1 3 3 5 3 1 3 2 1 4 3 1 2 3 3 2 5 5 1 4 4 4 5 6 5 3 5 9 12 11 5 6 6 8 6
5 4 2 2 7 5 6 6 7 3 6 3 2 5 6 2 1 1 2 2 4 2 2 2 1 0 2 7 5 3 8 8 8 8 8 9 9 9 7 6 7 7 7 7 8
2 1 1 8 7 4 5 6 8 8 5 2 6 2 3 3 5 5 5 3 4 4 3 3 2 3 2 3 4 7 6 8 5 6 5 8 6 5 6 6 5 7 7 7 7
Wind_Direction
357 356 354 351 348 346 345 343 341 337 335 333 329 325 317 304 306 280 266 270 315 327 334 329 320 295 268 234 245 294 235 235 244 252 259 149 158 333 19 113 102 89 58 104 129
353 348 350 351 347 343 342 342 341 337 334 330 330 327 324 314 296 275 264 32 6 336 4 344 306 309 257 219 217 199 214 234 245 248 252 158 178 156 151 156 149 96 96 112 133
344 343 344 344 341 338 334 334 334 333 333 331 331 339 333 325 282 354 61 58 353 261 76 17 302 288 260 233 193 236 225 256 261 356 12 162 190 155 196 194 180 161 143 140 147
342 340 338 340 337 332 330 329 329 327 327 328 328 334 332 342 321 52 28 313 0 244 102 43 275 250 290 206 188 164 270 276 304 31 4 335 192 160 190 95 203 160 148 149 161
332 334 338 335 334 330 327 326 324 322 321 321 321 330 331 7 289 32 205 30 288 226 183 101 240 223 246 274 138 171 183 309 270 345 297 29 321 186 208 99 66 107 136 150 171
325 325 329 330 331 328 324 324 321 316 315 313 309 324 280 261 344 314 335 234 282 273 122 99 212 224 211 257 106 192 205 258 283 234 166 191 207 54 247 132 113 132 145 156 170
323 326 327 328 330 326 322 321 319 314 311 308 302 283 266 282 335 312 298 249 119 189 199 99 248 67 301 343 342 82 179 286 292 243 205 214 163 214 272 139 143 169 156 161 169
321 324 327 326 329 326 323 320 317 311 312 317 307 268 296 339 310 299 314 200 150 116 58 196 236 103 25 350 325 217 297 182 282 217 198 252 208 209 171 139 177 176 167 153 174
320 326 327 328 329 327 322 317 309 293 288 277 286 28 335 52 340 304 307 278 172 151 167 229 272 70 73 34 322 179 202 207 142 218 172 211 204 94 127 165 211 177 156 159 168
318 322 325 330 331 327 321 307 280 296 260 231 232 44 308 2 317 298 281 273 214 158 113 311 28 70 60 51 79 340 251 180 236 355 292 211 245 121 132 188 231 202 158 155 169
321 322 325 329 334 329 324 338 349 136 6 22 338 268 276 327 122 288 315 292 262 220 115 174 104 91 119 292 30 334 322 308 49 317 302 241 247 207 161 153 290 262 188 152 176
315 320 327 330 333 326 345 60 53 353 321 284 1 137 286 327 319 353 336 285 238 268 123 128 62 128 107 12 44 359 353 2 184 301 286 339 246 278 204 177 179 252 213 172 151
311 316 323 327 326 306 64 44 56 290 267 12 70 22 339 326 349 344 348 319 236 215 22 25 90 132 116 90 55 67 46 311 340 264 181 291 265 211 238 234 156 227 337 10 151
306 310 323 326 301 322 65 0 333 299 319 12 11 52 352 306 276 324 298 309 291 9 64 290 139 138 115 87 26 104 10 355 359 341 72 285 270 68 188 138 177 218 198 265 323
307 306 324 354 324 332 348 326 318 237 235 3 16 291 288 21 295 4 280 305 324 100 213 82 144 159 163 155 156 101 299 4 345 343 0 70 55 289 10 75 39 37 47 27 21
297 300 317 243 218 26 319 306 247 213 202 6 18 356 33 9 9 223 183 252 297 315 252 90 23 129 74 157 198 188 176 98 22 352 358 285 160 338 66 18 50 66 76 64 37
284 15 311 290 354 337 313 247 269 20 266 353 342 341 5 21 357 353 9 13 14 10 206 149 120 123 169 130 191 256 139 62 79 95 228 8 21 279 72 49 30 345 352 30 76
208 224 17 47 331 340 273 31 282 357 280 328 330 308 47 10 8 341 71 66 210 337 295 187 124 150 149 5 138 219 167 139 74 46 345 304 219 242 88 65 31 11 338 343 95
161 202 245 57 331 322 281 208 39 116 2 359 249 28 7 68 283 90 25 5 36 357 1 355 89 102 25 3 1 166 104 103 117 126 23 238 235 311 95 67 48 34 9 14 49
222 231 133 326 340 244 71 222 125 51 292 347 345 319 75 17 76 63 18 356 335 6 342 312 30 4 115 222 93 14 163 91 4 127 216 255 199 216 66 36 34 22 21 12 53
218 206 79 313 236 65 181 143 195 174 106 45 65 314 68 28 104 34 15 50 346 325 339 5 346 34 213 190 130 156 199 50 113 99 231 5 91 14 85 70 42 18 11 7 10
133 148 40 298 79 101 160 137 312 154 130 78 353 7 331 8 50 100 56 47 118 354 61 27 348 299 65 26 36 0 349 152 155 190 261 82 291 100 119 129 90 36 10 352 343
136 182 159 285 176 157 120 137 291 237 159 153 203 241 350 37 95 42 129 32 11 345 68 99 60 237 344 356 122 245 158 80 98 63 202 151 211 169 161 99 32 33 7 337 336
129 157 18 21 322 143 147 153 135 258 350 3 36 243 219 187 85 119 115 103 8 40 313 156 47 345 66 45 22 34 356 359 142 147 293 230 282 294 356 347 354 5 337 338 336
132 196 173 177 215 198 169 147 131 175 281 315 191 252 204 172 182 199 115 152 124 134 233 354 109 29 341 342 187 193 212 191 197 239 232 293 323 323 306 311 344 335 341 336 321
148 157 212 172 139 150 162 187 167 157 151 213 192 192 238 215 153 87 32 345 61 155 22 10 116 55 46 13 18 276 259 271 234 227 247 248 272 263 329 10 345 318 340 349 344
131 356 181 166 155 154 187 167 187 148 199 147 198 137 230 251 20 26 32 359 334 341 22 62 116 31 231 336 343 337 241 209 216 252 241 254 267 21 324 311 329 341 339 338 344